Location: Arbon
(43.0005°N, 0.7472°E)
Time: 20:21:27
(UTC+00:00)

Explorer 7 - Pass Details

Date: 05 December 2020
Orbit: 484 x 678 km, 50.3° (Epoch: 25 January)

Event Time Altitude Azimuth Distance (km) Brightness Sun altitude
Rises 05:02:48 0° 299° (WNW) 2,827 - -23.1°
Reaches altitude 10° 05:05:10 10° 299° (WNW) 1,889 - -22.6°
Exits shadow 05:09:14 76° 258° (WSW) 571 6.6 -21.9°
Maximum altitude 05:09:27 80° 213° (SSW) 562 6.7 -21.9°
Drops below altitude 10° 05:13:28 10° 126° (SE) 1,764 10.3 -21.2°
Sets 05:15:36 0° 125° (SE) 2,622 11.5 -20.8°
